When you browse on this site, cookies collect data to enhance your experience and personalize the content and advertising you see.
Visit our Privacy Policy to learn more. By continuing to use the site, you agree to this use of cookies and data.

Hourly Weather Kipungo

Today, 14 July, Tuesday

Time Temperature Precipitation Wind Pressure Humidity
00:00 +12°C° 0 mm 1 mps 653 mmHg 26%
01:00 +11°C° 0 mm 1 mps 652 mmHg 29%
02:00 +10°C° 0 mm 1 mps 652 mmHg 30%
03:00 +8°C° 0 mm 0 mps 652 mmHg 31%
04:00 +7°C° 0 mm 0 mps 651 mmHg 33%
05:00 +7°C° 0 mm 0 mps 651 mmHg 32%
06:00 +7°C° 0 mm 0 mps 652 mmHg 31%
07:00 +7°C° 0 mm 0 mps 652 mmHg 30%
08:00 +13°C° 0 mm 1 mps 653 mmHg 24%
09:00 +18°C° 0 mm 2 mps 654 mmHg 18%
10:00 +24°C° 0 mm 2 mps 655 mmHg 12%
11:00 +26°C° 0 mm 2 mps 655 mmHg 11%
12:00 +28°C° 0 mm 3 mps 655 mmHg 9%
13:00 +30°C° 0 mm 3 mps 655 mmHg 8%
14:00 +31°C° 0 mm 2 mps 654 mmHg 7%
15:00 +31°C° 0 mm 2 mps 654 mmHg 7%
16:00 +31°C° 0 mm 2 mps 653 mmHg 7%
17:00 +27°C° 0 mm 2 mps 653 mmHg 10%
18:00 +23°C° 0 mm 1 mps 653 mmHg 12%
19:00 +19°C° 0 mm 1 mps 652 mmHg 15%
20:00 +18°C° 0 mm 1 mps 652 mmHg 16%
21:00 +16°C° 0 mm 2 mps 653 mmHg 17%
22:00 +15°C° 0 mm 2 mps 653 mmHg 18%
23:00 +14°C° 0 mm 2 mps 653 mmHg 19%

Tomorrow, 15 July, Wednesday

Time Temperature Precipitation Wind Pressure Humidity
00:00 +12°C° 0 mm 1 mps 653 mmHg 21%
01:00 +11°C° 0 mm 1 mps 652 mmHg 22%
02:00 +10°C° 0 mm 1 mps 652 mmHg 24%
03:00 +9°C° 0 mm 1 mps 652 mmHg 26%
04:00 +8°C° 0 mm 1 mps 651 mmHg 28%
05:00 +8°C° 0 mm 1 mps 652 mmHg 29%
06:00 +8°C° 0 mm 1 mps 652 mmHg 30%
07:00 +7°C° 0 mm 0 mps 653 mmHg 30%
08:00 +13°C° 0 mm 2 mps 654 mmHg 24%
09:00 +17°C° 0 mm 3 mps 656 mmHg 17%
10:00 +22°C° 0 mm 4 mps 657 mmHg 10%
11:00 +25°C° 0 mm 4 mps 657 mmHg 9%
12:00 +28°C° 0 mm 4 mps 657 mmHg 8%
13:00 +30°C° 0 mm 5 mps 656 mmHg 7%
14:00 +30°C° 0 mm 4 mps 656 mmHg 7%
15:00 +30°C° 0 mm 4 mps 656 mmHg 7%
16:00 +30°C° 0 mm 4 mps 655 mmHg 8%
17:00 +26°C° 0 mm 3 mps 655 mmHg 10%
18:00 +22°C° 0 mm 3 mps 654 mmHg 13%
19:00 +18°C° 0 mm 2 mps 654 mmHg 15%
20:00 +17°C° 0 mm 2 mps 654 mmHg 16%
21:00 +15°C° 0 mm 2 mps 654 mmHg 18%
22:00 +14°C° 0 mm 2 mps 655 mmHg 19%
23:00 +13°C° 0 mm 2 mps 654 mmHg 21%

Day after tomorrow, 16 July, Thursday

Time Temperature Precipitation Wind Pressure Humidity
00:00 +12°C° 0 mm 2 mps 654 mmHg 23%
01:00 +10°C° 0 mm 1 mps 654 mmHg 25%
02:00 +9°C° 0 mm 1 mps 654 mmHg 27%
03:00 +8°C° 0 mm 1 mps 653 mmHg 29%
04:00 +7°C° 0 mm 1 mps 653 mmHg 31%
05:00 +7°C° 0 mm 1 mps 654 mmHg 31%
06:00 +7°C° 0 mm 1 mps 654 mmHg 31%
07:00 +7°C° 0 mm 1 mps 655 mmHg 32%
08:00 +12°C° 0 mm 2 mps 656 mmHg 25%
09:00 +16°C° 0 mm 3 mps 657 mmHg 19%
10:00 +21°C° 0 mm 4 mps 658 mmHg 13%
11:00 +23°C° 0 mm 4 mps 658 mmHg 12%
12:00 +27°C° 0 mm 4 mps 657 mmHg 11%
13:00 +29°C° 0 mm 4 mps 657 mmHg 11%
14:00 +29°C° 0 mm 4 mps 657 mmHg 11%
15:00 +29°C° 0 mm 4 mps 656 mmHg 11%
16:00 +29°C° 0 mm 4 mps 656 mmHg 11%
17:00 +26°C° 0 mm 3 mps 655 mmHg 15%
18:00 +22°C° 0 mm 3 mps 655 mmHg 19%
19:00 +18°C° 0 mm 2 mps 655 mmHg 23%
20:00 +17°C° 0 mm 2 mps 655 mmHg 25%
21:00 +16°C° 0 mm 2 mps 655 mmHg 27%
22:00 +14°C° 0 mm 2 mps 655 mmHg 29%
23:00 +13°C° 0 mm 2 mps 655 mmHg 32%

17 July, Friday

Time Temperature Precipitation Wind Pressure Humidity
00:00 +12°C° 0 mm 2 mps 654 mmHg 35%
01:00 +11°C° 0 mm 1 mps 654 mmHg 37%
02:00 +10°C° 0 mm 1 mps 654 mmHg 40%
03:00 +9°C° 0 mm 1 mps 654 mmHg 42%
04:00 +8°C° 0 mm 1 mps 653 mmHg 45%
05:00 +8°C° 0 mm 1 mps 654 mmHg 46%
06:00 +8°C° 0 mm 1 mps 654 mmHg 47%
07:00 +8°C° 0 mm 1 mps 654 mmHg 48%
08:00 +12°C° 0 mm 2 mps 656 mmHg 41%
09:00 +15°C° 0 mm 4 mps 657 mmHg 34%
10:00 +21°C° 0 mm 5 mps 658 mmHg 28%
11:00 +23°C° 0 mm 4 mps 657 mmHg 24%
12:00 +26°C° 0 mm 4 mps 657 mmHg 21%
13:00 +28°C° 0 mm 3 mps 656 mmHg 18%
14:00 +28°C° 0 mm 3 mps 656 mmHg 16%
15:00 +28°C° 0 mm 3 mps 656 mmHg 15%
16:00 +28°C° 0 mm 3 mps 655 mmHg 13%
17:00 +25°C° 0 mm 2 mps 655 mmHg 18%
18:00 +21°C° 0 mm 2 mps 654 mmHg 22%
19:00 +17°C° 0 mm 2 mps 654 mmHg 27%
20:00 +16°C° 0 mm 2 mps 654 mmHg 30%
21:00 +15°C° 0 mm 2 mps 654 mmHg 33%
22:00 +13°C° 0 mm 2 mps 654 mmHg 36%
23:00 +12°C° 0 mm 2 mps 654 mmHg 39%

18 July, Saturday

Time Temperature Precipitation Wind Pressure Humidity
00:00 +10°C° 0 mm 2 mps 654 mmHg 41%
01:00 +9°C° 0 mm 2 mps 654 mmHg 44%
02:00 +9°C° 0 mm 1 mps 653 mmHg 47%
03:00 +8°C° 0 mm 1 mps 653 mmHg 51%
04:00 +7°C° 0 mm 1 mps 652 mmHg 54%
05:00 +7°C° 0 mm 1 mps 653 mmHg 55%
06:00 +7°C° 0 mm 1 mps 653 mmHg 56%
07:00 +7°C° 0 mm 1 mps 654 mmHg 56%
08:00 +10°C° 0 mm 2 mps 655 mmHg 46%
09:00 +16°C° 0 mm 3 mps 656 mmHg 35%
10:00 +20°C° 0 mm 4 mps 656 mmHg 24%
11:00 +22°C° 0 mm 4 mps 656 mmHg 20%
12:00 +25°C° 0 mm 4 mps 656 mmHg 16%
13:00 +28°C° 0 mm 3 mps 656 mmHg 13%
14:00 +28°C° 0 mm 3 mps 655 mmHg 12%
15:00 +28°C° 0 mm 3 mps 655 mmHg 11%
16:00 +29°C° 0 mm 3 mps 654 mmHg 10%
17:00 +25°C° 0 mm 2 mps 654 mmHg 14%
18:00 +21°C° 0 mm 2 mps 654 mmHg 19%
19:00 +17°C° 0 mm 2 mps 654 mmHg 23%
20:00 +16°C° 0 mm 2 mps 654 mmHg 26%
21:00 +14°C° 0 mm 2 mps 654 mmHg 30%
22:00 +13°C° 0 mm 2 mps 654 mmHg 33%
23:00 +12°C° 0 mm 1 mps 653 mmHg 36%

19 July, Sunday

Time Temperature Precipitation Wind Pressure Humidity
00:00 +11°C° 0 mm 1 mps 653 mmHg 39%
01:00 +9°C° 0 mm 1 mps 653 mmHg 42%
02:00 +9°C° 0 mm 1 mps 652 mmHg 44%
03:00 +8°C° 0 mm 1 mps 652 mmHg 47%
04:00 +7°C° 0 mm 1 mps 652 mmHg 49%
05:00 +7°C° 0 mm 1 mps 652 mmHg 50%
06:00 +7°C° 0 mm 1 mps 653 mmHg 51%
07:00 +7°C° 0 mm 1 mps 653 mmHg 52%
08:00 +12°C° 0 mm 2 mps 654 mmHg 43%
09:00 +16°C° 0 mm 3 mps 655 mmHg 34%
10:00 +20°C° 0 mm 4 mps 656 mmHg 25%
11:00 +24°C° 0 mm 3 mps 656 mmHg 20%
12:00 +26°C° 0 mm 3 mps 656 mmHg 16%
13:00 +29°C° 0 mm 2 mps 656 mmHg 12%
14:00 +29°C° 0 mm 2 mps 655 mmHg 11%
15:00 +29°C° 0 mm 1 mps 655 mmHg 11%
16:00 +29°C° 0 mm 1 mps 654 mmHg 10%
17:00 +26°C° 0 mm 1 mps 654 mmHg 13%
18:00 +22°C° 0 mm 1 mps 653 mmHg 17%
19:00 +18°C° 0 mm 1 mps 653 mmHg 20%
20:00 +16°C° 0 mm 1 mps 653 mmHg 23%
21:00 +15°C° 0 mm 1 mps 653 mmHg 26%
22:00 +13°C° 0 mm 1 mps 653 mmHg 29%
23:00 +12°C° 0 mm 1 mps 653 mmHg 33%
Show more